User: anonymous   Login
Location: Crab Orchard
(37.7292°N, 88.8042°W)
Time: 10:28:20
(UTC+00:00)
Language:

Okean 1 - Orbit

View from above orbital plane
View from above orbital plane
View from above satellite
View from above satellite

Ground track
Ground track

The orbit data is extracted from the following two-line orbital elements,

1 19274U 88056A   20057.09741019 -.00000021 +00000-0 -34331-5 0  9999
2 19274 082.5034 273.9004 0012066 193.0127 167.0791 15.06376333701848
Epoch (UTC): 26 February 2020 02:20:16
Eccentricity: 0.0012066
inclination: 82.5034°
perigee height: 539 km
apogee height: 555 km
right ascension of ascending node: 273.9004°
argument of perigee: 193.0127°
revolutions per day: 15.06376333
mean anomaly at epoch: 167.0791°
orbit number at epoch: 70184

The dashed part of the orbit path shows where the satellite is in the earth's shadow,  

DLR